GEFSSE_500_meanwind_186.txt.gz
Wind_Speed
9 10 9 10 10 10 10 10 10 11 12 12 12 12 12 12 11 11 11 11 11 11 11 10 10 10 10 10 9 9 8 7 7 8 7 7 7 7 6 7 6 6 7
9 9 9 9 10 10 9 9 10 10 11 11 11 11 11 11 11 11 10 10 10 10 10 9 9 9 9 8 8 8 8 7 7 7 7 6 6 6 6 6 6 6 6
8 8 8 8 9 9 9 9 10 10 10 11 11 11 11 11 11 10 10 9 9 9 8 8 8 8 7 7 7 7 7 7 7 6 6 6 5 5 5 5 5 5 6
7 8 8 8 8 8 9 9 9 9 10 10 10 10 10 10 10 9 9 8 8 7 7 7 7 7 6 7 7 6 6 6 6 6 5 5 4 4 4 4 4 5 5
7 7 7 7 8 8 8 9 9 9 9 9 9 9 10 9 9 9 8 8 7 7 7 7 6 6 6 6 5 5 5 5 5 4 4 4 4 4 4 4 4 4 4
7 7 7 7 7 8 9 9 9 9 9 9 9 9 9 8 8 8 8 7 6 6 6 5 5 5 4 5 4 4 4 4 4 4 4 4 3 3 3 3 3 4 4
7 7 7 7 7 7 8 9 8 8 8 8 8 8 8 8 7 7 7 6 5 5 4 4 3 3 3 3 2 3 3 3 3 3 3 3 3 2 3 3 3 3 3
7 7 7 7 7 7 8 8 8 7 8 8 8 7 7 7 6 6 6 5 5 4 4 3 3 2 2 1 2 2 2 2 2 2 2 2 2 2 2 2 2 2 2
6 7 7 7 7 7 8 8 8 8 7 8 7 7 7 6 6 6 6 5 5 4 3 3 2 2 1 1 1 1 1 1 1 1 1 1 1 0 0 0 0 1 1
6 7 7 7 7 7 8 8 8 7 8 8 7 7 6 6 7 6 6 5 5 4 3 3 2 1 1 1 1 1 1 1 1 1 1 1 1 0 1 2 1 1 1
6 7 8 8 8 8 8 8 8 8 8 8 8 7 7 6 6 7 6 6 5 4 4 3 2 2 1 1 1 1 2 1 1 2 2 2 2 1 1 1 2 2 1
7 8 8 8 9 9 9 8 8 8 8 8 8 8 7 7 6 6 6 6 5 4 4 3 3 2 2 2 2 2 2 2 3 3 3 3 3 2 2 2 2 2 2
8 8 9 9 9 10 9 9 9 8 8 8 8 8 8 7 7 7 6 6 5 5 4 4 3 3 3 3 3 3 3 4 4 4 4 4 3 3 3 4 3 3 3
9 9 10 10 9 10 10 9 8 8 8 8 8 8 8 8 8 8 7 6 6 5 5 5 4 4 4 4 4 4 5 4 4 5 5 4 4 4 4 4 4 4 4
10 11 11 10 10 11 11 10 9 9 8 9 9 9 9 8 8 8 8 7 6 6 5 5 5 5 5 5 5 5 5 5 5 5 5 5 5 5 5 5 5 5 5
10 11 12 11 11 12 12 11 10 10 9 9 9 9 9 9 9 9 9 7 7 6 6 5 5 5 5 5 4 5 5 5 5 5 5 5 5 5 5 5 5 5 5
11 12 13 13 13 13 13 12 12 11 10 10 10 10 9 9 9 9 9 9 8 7 7 6 6 5 5 5 4 4 4 5 5 5 5 5 5 5 5 5 5 6 6
12 13 13 13 14 14 14 14 14 13 12 11 11 11 10 10 10 9 10 10 9 8 8 7 7 6 6 5 5 5 5 5 5 5 5 5 5 5 6 6 7 7 7
12 13 14 14 15 15 15 15 15 14 13 12 12 12 11 11 10 10 10 10 9 9 9 9 8 8 7 6 6 5 5 5 6 5 5 6 6 6 7 7 8 8 8
13 13 14 15 14 14 14 15 14 14 14 13 13 12 12 12 12 12 11 10 10 10 10 10 9 9 8 8 7 6 6 6 5 6 6 6 7 7 7 7 8 9 9
14 14 14 14 14 15 15 15 15 15 14 14 14 14 13 13 13 12 12 11 10 10 11 10 10 9 9 8 8 7 6 6 5 5 6 6 7 8 8 8 9 9 9
13 14 15 15 15 16 16 15 14 14 15 15 14 14 14 13 13 12 12 11 10 10 11 11 10 9 9 9 8 8 7 7 6 6 6 7 8 8 9 9 9 9 9
12 13 15 15 15 15 16 15 14 13 13 13 13 14 14 14 13 13 13 12 11 11 11 11 10 10 9 9 9 8 8 7 7 7 7 7 8 8 9 9 9 9 9
13 13 14 15 14 14 15 15 13 12 13 12 13 14 14 13 13 13 13 13 12 12 11 11 11 11 10 10 9 9 8 7 7 7 7 7 8 8 9 9 9 9 9
13 13 13 15 15 14 14 15 14 13 13 13 13 14 13 13 13 13 13 13 12 12 11 11 11 12 11 11 10 9 9 8 8 7 7 8 8 8 8 9 9 9 9
14 13 13 13 14 15 15 15 15 14 14 13 13 14 14 13 13 13 14 14 13 13 12 11 11 11 12 11 10 10 9 9 8 8 7 8 8 8 8 9 9 9 9

GEFSSE_500_meanwind_192.txt.gz
Wind_Speed
9 10 10 10 10 9 9 9 9 9 9 9 9 9 10 10 10 10 10 11 11 10 10 10 10 9 9 9 9 9 8 7 7 7 7 7 7 7 7 7 7 7 8
8 9 9 9 9 8 8 8 8 8 8 8 8 8 8 9 9 9 9 9 9 9 9 9 9 9 8 8 8 8 8 7 7 7 7 7 7 6 6 6 6 6 7
7 8 9 8 7 7 7 7 7 7 7 7 8 8 8 8 8 8 8 8 8 8 8 8 8 7 7 7 7 7 7 6 6 6 6 5 5 5 5 5 5 5 6
5 6 8 7 7 7 7 6 6 6 7 7 7 7 7 7 7 7 7 7 7 7 6 7 6 6 6 6 6 6 6 6 5 5 5 5 5 5 5 5 5 4 5
4 6 7 7 6 6 5 5 5 5 5 6 6 7 7 7 6 6 6 6 6 6 6 5 5 5 4 4 5 5 5 5 5 5 5 5 5 5 5 4 5 5 5
4 5 6 7 6 5 5 4 4 4 5 5 6 7 7 6 6 6 6 5 5 5 5 4 4 3 3 3 3 4 4 4 4 4 4 5 5 5 5 5 4 4 4
5 6 6 6 5 5 4 4 4 4 4 5 5 6 6 6 6 5 5 5 4 4 4 3 3 3 2 2 2 3 3 4 4 3 4 4 5 4 4 5 4 4 4
4 5 5 6 5 5 5 4 4 4 4 4 5 5 5 5 5 5 4 4 3 3 3 2 2 2 2 2 1 2 2 3 3 3 3 3 4 4 4 4 4 3 3
5 5 5 5 5 5 5 5 5 5 5 5 5 4 4 5 5 4 4 3 3 2 2 2 1 1 1 0 1 1 2 3 3 2 3 3 4 4 4 3 3 3 3
5 6 6 6 6 6 5 5 6 6 5 5 5 4 4 4 4 4 4 3 3 2 2 1 0 0 1 1 1 1 2 2 2 2 3 3 3 3 3 3 3 3 3
6 7 7 7 7 7 6 6 6 6 6 5 5 4 4 4 5 5 4 4 3 2 2 2 1 1 2 2 2 2 2 3 1 2 3 2 3 3 3 3 4 3 3
6 7 7 7 7 7 7 7 7 6 6 6 5 5 5 5 5 5 5 4 4 2 2 2 2 2 2 2 3 3 3 2 2 2 3 3 3 3 3 3 4 4 3
8 8 8 8 8 8 8 8 8 7 7 6 6 6 6 6 6 6 6 6 5 4 3 3 2 2 3 3 3 3 3 2 3 3 3 3 3 3 3 3 3 4 4
9 9 9 9 8 8 8 8 8 8 7 7 7 7 6 6 7 6 7 6 5 5 4 3 3 3 3 3 3 3 3 3 3 3 4 3 3 3 3 3 4 4 4
9 9 10 9 9 9 8 9 9 8 8 8 8 8 8 7 7 7 7 7 6 5 5 4 4 4 4 3 4 4 3 4 3 4 4 4 3 3 4 3 3 3 4
10 10 10 10 10 10 10 10 10 10 10 9 9 9 8 8 8 8 7 7 6 6 6 5 5 5 5 4 4 4 4 4 3 4 4 3 3 3 3 3 3 4 5
9 9 10 10 11 11 11 11 11 10 10 10 10 9 9 8 8 8 8 8 7 7 8 7 6 5 5 5 5 4 4 4 4 4 4 3 3 3 4 4 4 5 5
10 10 11 11 12 12 12 12 12 11 11 11 10 10 10 9 9 9 9 8 8 8 8 8 7 6 6 5 5 4 5 5 5 5 5 4 4 4 4 5 5 5 5
11 12 11 12 12 13 13 12 12 12 12 12 12 12 12 11 11 10 10 10 9 9 9 8 7 7 7 6 6 5 5 5 5 5 5 4 4 5 5 5 5 6 6
11 11 12 12 12 13 13 14 14 13 13 14 13 13 13 13 12 11 11 11 10 9 9 9 9 8 8 8 7 6 6 6 5 5 5 4 4 5 5 5 5 5 6
11 11 11 12 13 14 14 14 14 14 14 14 14 14 14 14 13 12 11 11 11 10 10 10 9 9 9 8 8 7 7 7 7 6 6 6 6 6 6 6 6 6 7
11 12 12 12 13 13 14 14 14 14 14 14 14 14 14 14 13 13 12 12 12 11 11 10 10 10 9 8 8 7 7 7 7 6 6 6 6 6 6 7 6 7 7
11 11 12 12 13 13 13 12 13 14 14 14 14 13 13 13 13 13 13 13 12 12 11 11 10 10 10 9 8 8 7 7 6 6 6 6 6 6 6 6 6 6 6
12 12 12 12 12 12 11 11 12 13 14 14 13 12 12 13 13 13 13 13 13 11 11 10 10 10 10 10 10 9 8 8 8 7 7 6 7 7 6 6 6 6 6
12 12 12 12 12 12 12 12 12 13 13 12 12 12 12 12 12 12 13 13 12 11 11 10 10 10 10 10 10 10 9 9 8 8 8 7 7 7 6 6 6 7 7
13 13 12 13 13 12 12 13 13 13 12 12 11 11 11 12 12 11 11 11 12 11 11 11 10 10 10 10 10 10 9 9 9 8 8 8 7 7 6 6 7 8 8

GEFSSE_500_meanwind_198.txt.gz
Wind_Speed
10 10 10 10 10 10 9 9 8 8 8 8 9 9 9 9 9 10 9 9 9 9 9 9 9 8 8 7 7 8 8 7 7 6 6 6 6 6 6 7 7 7 7
9 9 9 9 9 9 8 8 7 7 7 7 7 7 7 8 8 8 8 8 8 8 8 8 9 8 8 7 7 7 7 7 6 5 5 6 5 6 6 6 6 7 6
8 8 9 9 9 8 8 7 6 6 6 6 5 6 6 7 7 7 7 7 7 7 7 7 7 7 7 6 6 6 6 5 5 5 5 5 5 5 5 5 6 6 6
7 7 8 8 8 7 6 6 5 5 5 4 4 5 5 6 6 6 6 5 5 6 6 6 6 6 5 5 5 5 5 5 5 4 4 5 5 4 4 4 5 5 5
6 6 7 7 7 6 6 5 5 4 4 4 3 4 4 4 5 4 4 4 4 5 5 5 5 5 5 4 4 4 4 5 5 4 4 5 5 4 4 4 5 5 5
5 5 6 6 6 5 5 4 4 4 3 3 3 3 3 3 3 3 3 3 3 4 4 4 4 4 4 4 4 4 4 4 4 4 4 4 4 4 4 4 4 5 5
4 4 5 5 5 4 4 4 3 3 2 2 2 2 2 2 2 2 2 1 2 3 3 3 3 3 3 3 3 3 3 3 3 3 3 4 4 5 4 4 4 4 4
3 4 3 4 4 3 3 3 3 2 2 1 2 1 1 1 0 0 0 1 2 1 2 2 2 2 2 2 2 2 3 3 3 3 3 3 4 4 4 4 4 4 3
3 3 2 2 3 2 2 2 2 2 1 1 1 0 0 1 1 1 1 1 1 1 1 1 2 2 2 2 2 2 2 2 3 3 3 3 3 3 4 4 3 3 3
2 2 2 3 3 2 2 1 1 0 0 0 0 0 1 1 1 1 1 1 1 1 1 1 1 1 2 2 2 2 2 2 1 2 2 2 2 2 3 3 3 3 3
3 3 3 3 3 3 3 2 1 1 1 1 0 1 1 1 1 1 1 1 1 1 1 1 1 1 1 1 2 2 2 2 0 1 1 2 2 2 2 2 2 3 3
3 3 4 4 4 4 3 3 2 1 1 1 1 1 1 2 2 2 2 2 2 2 2 2 2 1 1 1 1 2 3 2 0 1 1 2 1 1 1 2 2 3 2
2 2 3 4 5 5 5 4 4 3 2 1 1 1 2 2 3 3 3 3 2 2 2 2 2 1 2 2 2 3 2 1 0 1 1 2 2 1 1 1 2 2 2
3 3 3 4 5 5 5 5 5 4 3 3 2 2 3 3 4 4 4 4 3 3 3 2 2 2 2 3 3 3 2 2 2 2 2 2 2 1 1 1 1 1 2
4 4 3 5 5 6 5 5 5 5 4 4 4 4 4 4 4 4 4 5 4 4 3 3 3 3 3 3 3 3 2 3 2 3 3 3 2 2 2 2 2 2 2
4 5 4 5 6 6 6 6 5 5 4 5 5 5 5 5 5 5 5 5 5 5 4 4 4 4 4 4 4 3 3 3 4 4 3 3 3 3 3 3 3 2 2
5 5 5 6 7 7 6 6 6 5 5 5 6 6 6 6 5 5 6 6 5 5 5 5 5 5 4 4 4 4 3 3 3 3 3 3 3 3 3 3 3 3 4
5 5 6 6 7 7 8 7 7 7 7 6 6 7 6 6 6 5 6 6 6 7 7 7 6 6 5 5 5 4 4 3 3 3 3 3 3 3 4 4 4 4 5
5 6 6 7 8 7 8 8 8 8 8 8 8 8 8 7 7 7 6 6 6 7 7 7 7 7 6 5 5 5 4 4 4 4 4 4 3 3 3 3 4 4 5
6 7 7 8 8 8 9 9 9 9 9 9 9 8 8 8 8 7 7 7 7 7 7 7 8 7 7 6 7 6 6 6 5 5 5 5 5 5 4 5 5 5 5
7 7 8 7 8 8 9 9 9 9 9 9 9 10 9 9 9 9 9 8 8 8 8 8 8 8 7 7 7 7 7 6 5 5 5 5 5 5 5 6 6 5 5
8 8 8 9 8 8 8 9 9 10 10 9 10 10 10 9 10 10 10 10 10 10 9 9 9 8 8 8 7 6 6 6 6 6 6 6 6 6 6 6 6 6 6
8 8 8 8 8 8 8 8 8 8 9 9 9 9 10 10 11 10 10 11 11 11 11 10 9 8 8 7 7 7 7 7 7 6 6 6 6 6 7 6 6 5 5
9 8 9 9 9 8 7 7 8 8 9 9 9 9 10 10 9 10 10 11 11 11 11 11 10 9 8 8 8 7 7 7 7 6 6 6 6 7 7 6 6 6 6
9 9 9 9 9 9 8 8 8 9 9 9 9 9 9 9 9 9 10 10 11 12 11 11 11 10 9 9 9 9 9 8 7 7 7 7 7 7 7 7 7 7 7
9 10 10 10 10 10 9 9 10 10 10 10 9 9 9 9 9 9 9 9 10 10 10 10 10 10 9 9 9 9 9 9 8 8 7 7 7 7 7 7 8 8 8

GEFSSE_500_meanwind_204.txt.gz
Wind_Speed
10 10 10 11 12 13 14 14 14 13 13 12 12 11 11 10 10 10 9 9 9 8 8 8 7 8 8 8 8 7 6 7 7 6 6 6 7 6 6 6 6 6 6
8 9 10 11 11 12 13 12 12 12 12 11 11 10 10 10 10 9 9 8 8 8 7 7 7 7 7 7 7 6 6 6 6 6 6 6 6 5 5 5 5 6 6
8 8 9 10 10 11 11 11 11 11 11 10 9 9 9 9 9 9 8 8 7 7 7 6 7 7 6 6 6 6 6 6 6 5 5 5 5 5 5 5 5 5 5
6 6 8 9 10 10 11 10 10 10 9 9 8 8 7 8 8 8 7 7 6 6 6 6 6 6 6 6 5 5 5 5 5 5 5 5 5 5 5 5 5 5 5
5 5 7 8 9 9 10 10 9 9 8 8 7 7 7 7 7 7 7 6 6 6 6 6 6 6 6 6 5 5 5 5 5 5 5 5 5 5 5 4 5 5 4
4 4 6 7 8 8 8 8 8 8 7 7 6 6 6 6 6 6 6 6 5 5 5 5 5 5 5 5 5 4 4 5 5 5 5 5 5 4 4 4 4 4 5
4 5 6 6 6 7 7 7 7 7 7 6 6 6 5 5 5 5 6 5 4 4 4 4 4 4 5 5 4 4 4 4 4 4 4 4 4 4 3 4 4 4 5
4 5 5 5 5 6 6 6 6 6 5 5 5 5 5 4 4 5 5 4 3 4 4 4 4 4 4 4 4 4 4 4 4 4 4 4 4 4 3 3 3 4 4
3 4 4 4 5 5 5 5 5 5 5 4 4 5 4 4 4 4 4 3 3 4 3 4 3 3 4 4 4 4 4 4 4 4 4 4 4 3 3 3 3 4 4
2 3 3 3 4 4 4 4 4 4 4 3 3 3 3 3 3 3 3 3 3 3 3 3 3 3 3 3 4 4 4 4 4 3 3 3 3 3 3 3 4 4 5
2 2 2 2 3 3 3 3 3 3 3 2 2 2 2 2 2 2 2 3 2 2 2 3 3 3 3 3 3 3 3 3 3 3 3 4 3 3 3 3 4 4 4
1 2 2 2 2 2 2 3 2 2 2 2 2 2 2 2 2 2 2 2 2 1 2 2 2 2 3 3 3 3 3 3 3 2 3 3 3 3 3 3 3 4 3
1 1 2 2 2 2 2 2 2 2 1 1 1 1 0 1 2 1 1 1 1 1 2 2 2 1 2 2 3 3 3 3 3 3 3 3 3 3 3 3 2 3 3
1 1 1 2 3 2 2 1 2 2 1 1 1 1 1 2 2 2 2 2 1 2 2 2 2 2 2 2 2 2 3 3 3 3 3 3 3 3 3 3 3 3 3
0 1 1 3 3 3 3 2 3 3 3 3 3 2 2 2 2 2 3 3 3 3 2 2 2 2 2 2 2 3 3 3 3 3 4 3 3 3 3 3 3 3 3
1 1 2 2 3 3 3 3 4 4 4 4 4 3 3 3 3 3 3 3 3 3 3 3 3 3 3 3 3 3 3 3 4 5 5 4 4 4 4 3 4 4 4
3 3 3 3 4 5 5 5 5 4 4 4 5 4 4 5 5 5 4 4 4 4 4 4 4 4 3 3 4 4 4 4 5 5 5 4 4 4 4 4 4 4 4
5 5 5 5 5 6 7 7 7 6 6 5 6 6 6 6 6 6 5 5 4 4 5 5 5 5 4 4 4 4 4 5 5 5 5 5 4 4 4 4 5 5 5
5 5 6 6 7 7 7 7 8 7 7 7 7 6 7 7 7 7 6 6 5 6 6 6 6 6 6 6 5 5 5 5 5 5 5 5 4 5 5 5 5 6 6
6 7 7 7 7 7 8 8 8 8 8 8 8 8 8 8 8 8 8 8 8 7 7 7 7 7 7 8 7 7 6 7 7 7 6 6 6 6 6 6 7 7 7
7 8 8 8 9 9 9 9 9 9 9 8 8 9 9 9 9 9 9 9 9 9 9 8 8 8 8 8 8 8 8 8 7 7 7 7 7 7 7 7 8 8 8
8 9 9 9 9 9 8 9 9 10 10 9 9 9 9 9 10 10 10 10 10 10 10 9 9 9 9 9 9 8 8 8 8 8 8 8 8 8 8 8 8 8 9
9 9 9 9 9 8 9 9 9 9 10 10 10 10 9 9 10 10 11 11 10 10 10 10 9 9 10 9 9 9 9 9 9 9 9 9 9 9 9 9 9 9 10
10 10 10 10 10 9 8 8 9 10 10 10 10 9 10 10 11 11 11 11 11 10 10 11 11 10 10 10 10 9 9 9 9 9 9 10 10 10 10 9 9 10 10
11 11 11 11 11 9 9 9 9 10 10 11 10 10 10 11 11 11 11 11 10 10 10 11 11 11 10 10 10 10 10 10 10 10 10 10 10 10 10 9 9 9 9
12 12 12 12 11 10 9 10 10 11 11 11 11 11 11 11 11 11 11 11 11 11 10 10 10 10 10 10 10 11 11 11 11 11 10 11 11 11 11 11 11 10 10

GEFSSE_500_meanwind_210.txt.gz
Wind_Speed
14 14 14 14 14 14 14 15 15 15 15 15 14 14 13 13 12 12 11 10 10 10 9 9 9 8 8 7 7 6 7 6 6 6 6 6 5 5 4 4 5 5 5
14 14 13 12 13 13 13 14 14 14 14 14 13 13 12 12 11 11 10 10 9 9 8 8 8 8 7 7 6 6 6 5 5 5 6 5 5 4 4 4 5 5 5
12 12 12 12 12 12 12 12 13 13 13 12 12 12 11 11 10 10 10 9 8 8 8 7 8 7 7 6 5 5 5 5 5 5 5 5 5 5 4 4 4 5 5
11 11 11 11 11 11 11 11 11 11 11 11 11 11 10 10 9 9 9 8 7 7 7 7 7 7 6 6 5 5 5 5 5 5 5 5 5 5 4 4 4 4 4
11 10 10 10 10 10 10 10 10 10 10 10 9 10 9 9 8 8 8 7 6 7 6 6 6 6 5 5 5 5 5 5 5 5 5 5 5 5 5 5 4 4 4
10 9 9 9 9 9 9 9 9 9 9 9 8 9 8 8 7 7 7 6 6 6 6 5 5 5 5 5 5 5 5 4 5 5 5 5 4 4 5 5 4 4 4
9 9 8 8 8 8 8 8 8 8 8 8 8 8 7 7 6 6 6 5 5 5 5 5 4 4 5 4 4 5 4 4 4 4 4 4 4 4 5 5 4 4 3
8 8 8 7 7 7 7 7 7 7 7 7 7 7 7 6 6 5 5 5 5 5 4 4 4 4 4 4 4 4 4 4 4 3 3 3 3 3 4 4 4 3 3
7 7 7 6 6 6 6 6 7 7 7 7 7 6 6 5 5 4 4 4 4 4 4 3 3 3 3 3 3 3 3 3 3 3 3 3 3 3 3 4 4 4 4
6 6 5 5 5 5 5 6 6 6 6 6 6 5 5 4 3 3 3 3 3 3 3 3 3 2 3 3 2 3 3 3 3 2 3 3 3 2 3 3 3 4 4
5 4 5 5 5 4 4 5 5 5 5 5 5 4 4 3 3 2 2 2 2 2 2 2 2 2 2 2 2 2 2 3 2 2 3 3 3 3 2 3 3 3 3
4 4 4 4 4 4 4 5 5 4 4 4 4 3 3 2 1 1 1 1 1 1 1 1 1 1 1 2 1 2 2 3 2 2 2 3 3 3 3 3 3 3 3
3 3 4 4 4 4 4 4 4 4 4 3 3 2 2 2 1 1 1 1 1 1 1 1 1 1 1 1 1 1 2 2 2 2 2 2 2 2 2 2 2 2 3
2 2 3 3 4 4 4 4 4 3 3 3 2 2 2 2 2 2 2 2 2 2 2 2 2 2 1 1 1 1 1 2 2 2 2 1 1 2 2 2 2 2 3
2 2 2 3 4 4 4 4 3 3 3 3 3 2 2 2 2 2 3 3 3 3 3 3 3 3 2 1 1 2 2 2 2 2 2 1 2 2 2 3 2 3 3
1 2 2 3 4 4 4 3 3 3 4 4 3 3 3 3 3 3 4 4 4 3 3 3 3 3 3 2 3 3 3 3 3 2 2 2 2 3 3 3 3 4 4
2 3 3 3 4 4 4 4 4 4 5 5 5 4 4 4 3 4 4 4 4 4 4 4 4 4 4 3 3 4 4 4 4 3 3 3 3 3 3 3 4 4 5
3 4 4 4 5 5 5 5 5 5 5 6 6 6 5 5 5 5 5 5 5 5 4 4 4 4 4 4 4 4 4 4 4 4 4 3 3 3 3 4 4 5 5
5 5 5 6 6 6 7 6 6 7 7 7 7 7 7 7 6 6 6 5 5 5 5 5 5 5 5 5 5 5 5 5 5 5 5 4 4 4 4 5 5 6 6
6 7 7 7 7 7 7 7 8 8 9 8 8 8 8 8 8 8 7 7 6 6 6 6 6 6 6 6 6 6 6 6 6 6 5 5 5 5 5 6 6 6 6
7 7 7 7 8 8 8 9 9 9 9 9 9 10 9 9 9 9 9 8 8 8 8 8 7 7 7 7 7 7 6 6 6 6 6 6 6 6 6 6 6 7 7
8 8 8 9 8 8 9 10 10 10 10 10 10 10 10 9 9 9 9 9 9 10 10 9 9 9 8 8 7 7 7 7 7 7 6 6 7 7 7 7 7 7 7
9 9 9 10 9 9 9 10 10 10 10 10 9 9 10 9 9 9 9 10 10 10 10 10 10 9 9 8 8 8 9 9 8 8 8 8 8 8 8 9 8 8 8
10 11 11 11 11 10 10 10 10 10 10 9 9 9 9 10 10 10 11 10 10 10 10 10 10 10 10 9 9 9 9 9 10 9 9 8 9 9 9 9 9 9 10
12 12 12 12 12 12 11 11 11 10 10 10 9 9 9 10 10 10 10 10 10 10 10 10 10 11 10 9 9 9 9 9 9 10 10 10 10 10 10 10 10 11 11
12 12 13 13 13 13 12 12 12 11 11 11 11 10 10 11 11 11 10 10 10 10 10 10 10 10 11 10 10 9 10 10 10 10 10 11 11 11 11 11 11 12 11

GEFSSE_500_meanwind_216.txt.gz
Wind_Speed
13 13 13 12 12 11 11 11 11 11 11 11 12 11 11 10 10 10 10 9 9 8 9 8 8 8 8 8 8 7 7 7 6 7 6 6 6 6 6 6 5 5 6
12 12 11 11 10 10 10 10 10 10 10 10 10 9 9 9 9 9 9 8 8 7 7 8 8 8 8 8 7 7 6 6 6 6 6 6 6 6 6 6 5 5 5
10 11 10 10 9 9 9 9 9 9 8 8 8 8 8 8 7 7 7 7 7 7 7 7 8 7 7 7 6 6 6 5 5 5 6 6 6 6 6 6 5 5 6
10 9 9 8 8 8 8 8 8 7 7 7 7 7 7 7 7 7 7 6 6 6 6 6 7 7 6 6 6 6 5 5 5 5 6 6 7 7 7 6 6 6 6
9 9 8 8 7 6 6 6 6 6 6 6 5 6 6 6 6 6 7 6 6 6 6 6 6 6 6 5 5 5 5 5 5 5 6 6 7 7 7 6 6 5 6
8 8 8 7 6 6 5 5 5 5 5 5 5 5 5 5 5 6 6 6 6 5 5 5 5 5 5 5 5 5 5 5 5 5 5 6 6 6 6 6 6 6 6
8 7 7 6 6 5 4 4 4 3 3 4 4 4 4 5 5 4 5 5 5 5 5 4 4 4 4 4 5 5 5 5 5 5 5 5 5 6 6 6 6 6 6
6 7 6 5 4 4 3 3 3 2 2 3 3 3 4 4 4 5 5 5 5 5 5 4 4 4 4 4 4 4 4 5 5 5 5 5 5 5 6 6 6 6 5
5 5 5 5 4 3 3 3 3 2 2 2 2 3 4 4 4 5 5 5 5 4 4 4 4 4 4 4 4 4 4 4 4 4 4 4 5 5 5 5 6 6 5
4 4 4 4 3 3 2 3 3 2 2 2 2 3 3 4 4 4 4 4 4 4 4 4 4 4 4 4 3 3 3 4 4 4 3 4 4 5 4 5 5 5 5
3 3 3 2 2 2 2 2 2 1 1 1 1 2 2 3 3 4 4 4 4 4 4 4 3 3 3 3 3 2 2 3 4 4 4 3 3 3 4 4 4 4 4
1 1 1 1 1 0 0 1 1 0 0 1 1 2 3 3 3 3 3 4 4 4 3 3 3 3 3 3 2 2 2 2 3 3 3 3 2 3 3 3 3 3 3
0 1 0 1 1 1 1 1 1 1 1 1 2 3 3 3 3 3 4 4 4 4 3 3 4 3 3 2 2 2 1 2 3 3 3 2 2 2 2 2 2 3 3
0 0 0 1 1 2 2 2 2 2 2 2 3 3 4 4 4 4 4 4 4 4 4 4 4 4 3 3 2 2 1 2 2 2 2 1 1 1 1 2 2 3 3
1 1 1 1 2 2 2 3 3 2 3 4 4 4 4 5 4 4 4 4 4 4 4 5 5 4 3 3 2 3 2 2 2 2 2 2 2 2 2 2 2 3 3
1 2 2 2 2 3 3 3 3 3 4 4 5 5 5 5 5 5 5 5 5 5 5 5 5 5 4 3 3 3 3 3 3 3 3 3 3 3 3 2 3 3 3
2 2 3 3 3 4 5 5 5 4 5 5 5 6 6 6 6 6 6 6 6 6 5 5 5 5 5 5 4 3 4 4 3 3 3 3 3 3 3 3 3 3 3
3 3 3 4 5 5 6 6 6 6 6 6 7 7 7 7 7 7 7 7 7 7 6 6 6 5 5 5 5 4 4 4 4 3 3 3 3 3 3 3 3 4 4
4 4 4 5 6 7 6 7 7 7 7 7 8 8 8 8 8 8 8 8 8 7 6 6 6 6 6 6 6 6 5 5 4 4 3 3 3 3 4 4 4 4 4
5 6 6 7 7 8 7 8 8 8 8 8 8 9 9 10 9 9 9 9 9 8 7 7 7 7 7 7 6 6 5 5 5 4 3 3 3 4 4 5 5 5 5
6 7 7 8 8 8 8 9 9 9 10 10 9 10 9 10 10 9 9 9 8 8 8 8 8 8 8 8 7 7 6 6 6 5 4 4 4 4 4 5 5 5 6
7 8 8 9 9 9 9 10 10 10 11 11 10 10 9 9 9 8 8 9 9 9 8 8 8 8 8 7 7 7 6 6 6 5 5 5 5 5 5 6 5 5 6
8 8 9 9 9 9 10 10 10 10 10 10 10 10 9 9 9 9 9 9 9 9 9 8 8 8 8 7 7 7 6 6 5 6 6 6 6 6 6 6 6 6 7
9 9 9 9 9 10 10 10 10 11 11 10 10 10 9 9 9 9 10 10 10 9 9 9 8 8 8 8 7 8 7 7 6 6 7 7 7 7 7 7 7 7 8
10 10 10 10 10 11 11 11 11 11 11 11 10 10 9 10 10 10 11 10 10 10 10 9 9 9 9 9 9 9 8 8 8 7 7 7 8 8 8 8 8 8 8
12 11 11 11 11 11 11 11 12 12 12 11 11 11 10 10 10 10 10 10 10 10 10 9 10 10 10 10 10 10 9 9 9 8 8 9 9 8 8 8 9 9 9

GEFSSE_500_meanwind_222.txt.gz
Wind_Speed
14 14 13 13 13 12 12 11 11 10 10 10 10 10 10 9 9 9 8 8 8 8 8 8 8 7 8 8 8 7 7 7 7 7 7 6 6 6 6 6 6 6 6
13 13 12 12 12 11 10 10 10 9 9 9 9 9 8 8 8 8 7 7 7 7 7 7 7 7 7 7 7 7 6 7 7 7 6 6 6 6 6 6 6 6 6
12 12 11 10 10 10 10 9 9 8 8 8 8 8 8 8 8 7 7 6 7 6 6 6 6 7 6 6 6 6 6 6 6 6 6 6 6 6 6 6 6 6 6
10 10 10 9 9 9 8 8 8 7 7 7 8 8 7 7 7 7 7 6 6 6 6 6 6 6 6 6 6 6 6 6 6 6 6 6 6 6 6 5 6 5 6
9 9 9 9 9 9 8 7 7 7 6 6 7 7 7 7 7 6 6 6 6 6 6 6 6 6 6 5 5 5 5 6 5 6 6 6 6 6 6 6 5 5 5
8 8 8 8 8 8 7 6 6 6 6 6 6 6 6 6 6 6 6 6 6 6 6 6 6 6 5 5 5 5 5 5 6 6 6 6 6 6 6 6 6 5 5
8 8 8 8 7 7 6 6 6 5 5 5 6 6 5 5 6 6 6 6 6 6 6 6 5 5 5 5 5 5 5 5 5 5 5 6 6 6 5 5 6 6 6
7 7 7 7 7 6 5 5 6 6 6 6 6 5 6 6 6 5 5 6 5 5 6 5 5 5 4 4 5 5 4 5 5 4 5 5 5 5 5 6 6 6 6
7 7 6 7 6 6 5 5 5 6 5 5 5 5 5 6 5 5 5 6 6 5 5 5 5 5 5 5 4 4 4 4 3 4 3 4 4 4 4 5 5 5 5
6 5 5 6 5 5 5 5 4 4 4 4 5 5 5 6 6 5 5 5 5 5 5 5 5 4 4 4 3 3 3 3 2 2 2 3 4 4 4 4 5 5 5
5 4 4 5 4 5 5 5 4 4 4 4 4 5 5 5 5 5 5 4 4 4 5 4 4 4 3 3 3 2 3 2 2 2 2 3 3 3 3 3 4 4 4
4 4 3 4 4 4 4 4 4 3 3 4 4 4 4 4 4 4 4 4 4 5 5 5 4 4 3 3 2 3 3 2 2 2 2 2 2 2 2 2 2 2 3
3 3 3 3 3 3 3 3 3 3 3 3 3 4 3 3 4 4 4 4 4 4 5 5 4 4 3 2 2 2 2 2 2 1 1 0 1 1 0 0 1 1 2
3 3 3 3 3 4 3 3 2 2 3 3 3 4 3 3 3 3 4 4 4 4 4 4 4 4 3 3 2 2 2 1 1 0 0 0 1 1 1 1 1 1 2
3 3 3 2 3 4 3 3 2 3 2 2 3 3 3 3 3 3 3 3 4 4 4 4 4 4 4 3 3 2 2 2 2 1 1 1 2 2 2 2 2 2 2
3 3 3 4 4 4 4 3 3 3 3 3 2 3 3 3 3 3 3 4 4 4 4 4 4 4 4 4 3 3 2 3 3 2 2 2 2 2 2 2 2 3 3
4 3 3 4 4 4 4 3 3 3 3 3 3 3 3 3 3 4 4 4 4 4 4 4 4 4 4 3 3 4 4 3 3 4 3 3 3 2 2 3 3 3 3
4 4 3 2 3 4 4 3 3 3 3 4 4 4 4 4 4 5 5 5 4 4 4 4 4 5 5 4 4 4 5 4 4 4 4 3 3 2 3 3 3 3 3
4 4 3 3 3 3 4 4 4 4 4 5 5 5 5 5 5 5 5 5 5 5 4 5 5 5 4 4 5 5 5 4 4 5 4 4 4 4 3 3 3 4 4
3 4 3 3 3 3 4 4 4 5 5 5 6 6 6 5 6 5 5 5 5 5 5 5 5 5 4 5 5 5 5 5 5 5 5 5 5 5 5 5 4 4 4
2 3 4 4 4 4 5 5 5 5 5 5 6 5 5 5 5 4 5 5 5 5 5 6 6 5 5 5 5 5 5 5 5 6 5 5 5 5 6 6 5 5 6
3 4 4 5 5 5 5 6 5 5 5 6 6 6 5 5 5 5 5 6 6 6 6 6 6 5 5 5 5 5 5 5 5 5 5 5 6 5 6 6 6 6 6
4 5 5 6 6 6 7 7 6 7 7 7 7 6 6 6 6 6 6 6 7 7 6 5 5 5 5 5 5 5 5 5 6 6 6 6 6 6 6 7 7 7 7
5 6 6 6 6 7 7 7 7 7 7 8 8 8 7 7 7 8 8 7 8 8 6 6 5 5 5 5 5 5 6 6 6 7 7 7 7 7 7 8 8 8 8
5 6 6 6 6 7 7 7 7 8 9 8 9 9 8 8 8 8 8 8 8 7 6 6 5 6 6 6 6 7 7 7 7 8 8 8 8 8 8 9 9 9 10
7 7 6 6 6 7 8 8 8 9 9 9 9 10 9 8 8 8 9 8 8 7 7 7 7 7 7 7 7 7 8 8 8 8 9 9 9 9 9 10 10 10 11

GEFSSE_500_meanwind_228.txt.gz
Wind_Speed
13 13 13 13 13 14 14 14 13 13 13 13 12 11 11 11 10 10 10 9 9 9 9 8 7 7 7 7 7 7 7 6 6 6 6 5 6 6 6 7 7 7 7
12 12 12 12 12 13 13 13 13 12 12 12 11 11 11 10 10 10 9 9 8 8 8 7 7 6 6 6 6 7 7 6 6 5 5 5 6 6 7 7 7 7 6
11 11 11 12 12 12 12 12 12 11 11 11 11 10 10 10 9 9 9 9 8 7 7 7 6 6 6 6 6 6 6 6 6 6 5 6 6 6 6 6 6 6 5
10 10 11 11 11 11 11 11 11 10 10 10 10 10 10 10 9 9 8 8 7 7 7 6 6 6 6 6 6 6 6 6 6 6 6 6 6 6 6 6 6 5 5
9 9 10 10 10 10 10 10 10 10 10 10 10 9 9 9 9 9 8 7 7 7 6 6 6 6 6 6 6 5 5 5 5 5 5 5 5 5 5 5 6 6 6
8 9 9 9 9 9 9 9 9 9 9 9 9 9 9 9 9 8 8 8 7 6 6 6 6 6 6 6 5 5 4 4 4 5 5 5 5 5 6 5 6 6 6
8 8 9 9 9 9 8 8 9 9 9 9 9 9 9 8 8 8 8 8 7 6 6 6 6 6 5 5 5 4 4 3 4 4 5 5 6 6 5 5 6 6 6
8 8 8 9 9 8 8 8 8 8 8 8 8 8 8 8 8 8 8 8 8 7 6 6 5 5 4 4 4 4 4 3 4 4 5 5 5 5 5 5 5 5 6
8 7 8 8 8 8 8 8 7 7 7 7 7 7 8 8 7 8 8 7 7 7 6 6 5 5 4 4 4 4 4 4 3 4 4 4 4 4 4 4 4 5 5
7 7 7 7 7 8 7 7 6 6 5 5 6 6 7 7 7 7 7 7 7 6 6 6 5 5 5 4 4 4 3 4 3 3 3 3 3 3 3 3 3 3 4
6 6 6 6 7 7 6 6 5 5 5 5 5 5 6 6 5 6 6 6 6 6 6 5 5 5 4 4 4 4 3 3 3 3 2 2 2 1 1 2 2 2 3
6 6 6 5 6 6 5 5 5 4 4 4 4 4 5 5 4 4 5 5 5 5 5 5 5 5 5 4 3 3 3 3 3 2 1 1 1 1 1 0 0 1 2
5 5 5 4 4 4 4 4 4 4 4 4 3 4 4 4 4 4 4 4 4 4 4 5 5 5 5 4 3 2 3 3 3 2 1 1 1 1 0 0 0 1 2
4 4 4 4 4 3 3 4 4 4 4 3 2 3 3 4 4 5 5 4 4 4 4 4 4 5 4 4 2 2 2 2 3 2 2 1 1 1 1 1 2 2 2
4 4 4 4 4 4 4 4 4 4 4 3 2 2 3 3 4 4 4 4 4 4 4 5 4 4 5 5 4 3 2 2 3 2 2 2 2 2 2 2 2 3 3
4 4 4 4 4 4 4 4 4 4 4 3 3 3 3 3 4 5 5 5 5 5 5 5 5 5 5 5 4 4 3 3 3 3 3 3 2 2 3 3 3 3 3
4 3 3 4 4 4 4 4 4 4 3 3 3 3 3 3 4 5 5 5 5 5 5 5 5 5 5 5 5 4 4 3 4 4 4 3 3 3 3 4 3 3 4
4 4 3 3 3 3 3 3 3 4 4 4 4 4 4 4 4 5 5 6 6 6 6 6 6 6 5 5 5 5 4 4 4 4 4 4 4 4 4 4 4 4 4
3 3 3 3 3 3 3 3 3 4 4 4 4 4 4 5 5 6 6 6 6 6 6 6 6 6 6 5 5 4 4 5 5 4 5 5 5 5 4 4 5 5 5
3 2 2 3 3 4 4 3 3 4 4 4 5 5 5 5 5 5 6 6 7 6 6 6 6 6 6 5 4 4 4 5 5 5 5 5 5 5 5 5 5 6 6
4 4 4 4 5 5 4 3 4 4 4 5 5 5 5 5 5 6 6 7 7 6 6 7 7 7 6 5 5 4 4 4 5 5 5 5 6 6 6 6 6 6 7
5 6 5 5 6 7 5 4 4 4 5 6 5 5 6 6 6 6 7 7 7 6 7 7 7 6 6 5 4 4 4 5 5 6 6 6 7 7 7 7 8 8 8
5 5 6 7 7 7 6 4 4 4 5 6 7 7 7 7 8 8 8 8 8 8 8 7 6 6 6 6 4 5 5 6 6 7 7 7 7 8 8 8 9 10 10
6 6 7 7 6 6 5 5 5 5 6 7 7 8 9 9 9 9 9 9 9 8 8 7 7 7 7 6 6 6 7 7 7 8 8 9 9 9 10 10 10 11 11
6 6 7 6 5 5 5 6 6 6 7 8 8 9 10 10 10 9 10 10 9 9 8 8 8 8 8 8 8 8 9 9 9 10 10 11 11 11 10 10 10 11 11
7 6 7 7 6 6 6 7 7 7 7 8 9 10 10 10 10 10 9 9 9 9 8 8 8 8 8 8 9 9 10 11 11 11 12 12 11 11 11 11 11 12 12

GEFSSE_500_meanwind_234.txt.gz
Wind_Speed
14 15 14 14 13 13 13 13 13 13 13 13 13 12 11 11 11 10 10 9 9 9 8 7 7 7 7 7 7 7 6 6 5 5 5 5 6 6 7 7 6 5 4
13 13 13 12 12 12 12 12 12 12 12 12 12 12 11 10 10 9 9 8 8 8 7 7 7 6 7 6 6 7 7 6 5 5 6 6 6 6 7 7 6 6 5
13 12 11 11 11 11 11 11 11 11 12 12 11 11 10 10 9 9 8 9 8 8 7 6 6 7 7 6 6 7 6 6 5 5 6 6 6 6 6 6 6 6 6
12 12 11 11 10 10 10 10 11 11 11 11 11 11 10 9 9 9 8 8 7 7 7 7 6 7 7 6 7 6 6 5 5 5 5 5 6 6 6 6 6 5 5
12 11 10 10 9 9 9 9 10 10 10 10 10 10 9 9 8 8 7 7 7 7 6 6 6 7 6 6 6 5 5 5 5 5 5 5 5 5 6 6 6 5 5
11 10 10 10 9 9 8 9 9 9 9 9 10 9 9 8 8 7 7 7 6 6 6 6 6 6 6 5 4 4 4 4 4 4 4 4 4 4 5 6 6 6 6
10 10 9 9 9 9 8 8 8 8 8 8 8 8 8 8 7 7 7 6 6 6 5 5 5 5 5 5 4 4 4 3 3 3 3 3 4 4 4 4 5 6 6
8 8 8 7 7 8 8 7 7 7 7 7 7 7 7 7 7 7 7 7 6 6 6 6 5 5 5 5 4 4 3 3 2 2 2 3 3 4 3 3 4 5 6
7 7 6 6 6 7 7 6 6 6 5 5 6 7 6 6 7 7 6 6 5 5 5 5 5 5 5 4 4 3 3 3 3 3 3 3 3 3 3 3 3 4 4
6 6 5 5 5 6 7 6 6 5 4 4 5 6 6 5 5 6 5 5 5 5 5 5 5 5 5 4 4 3 3 3 3 3 3 2 3 3 2 3 2 3 3
6 5 5 4 5 5 5 5 5 4 3 4 4 5 5 4 4 5 5 4 5 5 5 5 5 5 4 3 3 4 4 3 2 2 2 2 2 2 2 2 2 2 2
5 5 4 3 4 4 4 4 3 3 3 3 3 4 3 4 4 4 5 5 4 4 4 4 4 4 3 3 3 3 3 2 1 1 1 1 1 1 1 1 1 1 1
4 3 3 3 3 3 3 3 3 3 3 3 3 3 3 3 4 4 4 5 4 4 4 4 4 3 3 2 2 2 2 2 1 1 1 1 0 1 1 1 0 1 1
3 3 3 3 2 2 2 2 3 3 3 3 3 2 2 2 3 3 4 4 3 3 3 3 3 3 2 2 1 1 2 2 2 1 1 0 0 1 2 2 2 1 1
3 3 2 2 2 2 2 3 3 3 3 3 3 2 2 2 2 3 4 4 3 2 3 3 3 2 1 1 1 1 1 2 2 1 1 1 1 1 2 2 2 2 2
2 2 3 2 2 2 2 3 3 3 3 3 3 2 2 2 2 3 3 3 3 2 2 3 3 3 2 1 1 1 1 1 2 2 2 2 2 2 2 2 2 3 3
2 2 2 2 2 3 2 3 3 4 4 3 3 3 2 2 2 2 3 2 2 2 2 3 3 3 2 2 2 2 2 2 2 2 3 3 3 3 3 2 2 3 3
2 1 1 2 2 2 3 3 3 4 4 3 3 3 3 3 2 3 3 3 3 3 4 4 4 4 4 4 3 3 3 3 2 3 3 3 3 3 3 3 3 3 3
2 2 2 2 2 2 3 3 4 4 5 5 4 4 4 3 3 3 4 4 4 4 5 5 5 5 5 5 4 3 3 3 3 4 3 3 3 3 4 4 4 4 3
3 4 3 4 3 3 3 4 4 5 5 5 4 4 4 4 4 4 4 5 6 6 6 7 6 6 6 6 5 5 4 4 4 4 4 4 4 4 4 5 5 5 5
4 5 6 5 4 4 3 4 5 5 5 5 5 5 5 5 4 5 5 6 6 7 7 7 6 6 6 5 5 5 4 4 4 4 4 4 5 5 6 6 6 6 6
5 6 6 5 5 5 4 5 6 6 6 6 5 5 6 6 6 6 6 6 6 7 7 7 6 6 5 5 4 5 4 4 4 4 5 6 6 7 7 7 8 8 8
6 6 6 6 6 6 5 6 6 6 6 6 5 5 6 7 8 8 7 7 7 7 7 6 6 5 5 5 5 5 4 5 5 5 6 7 7 8 8 9 9 9 9
6 6 7 7 6 6 6 6 7 7 6 6 6 7 8 9 10 9 8 7 8 7 7 7 6 6 6 6 6 5 5 6 6 7 8 8 9 9 9 9 9 10 10
6 6 7 7 7 7 7 7 8 7 7 8 8 8 9 9 10 9 8 8 8 7 7 7 7 7 7 6 6 6 7 7 8 8 8 9 10 10 10 10 11 10 10
7 7 7 7 8 8 8 8 8 8 8 9 10 10 10 10 10 9 9 9 8 8 8 8 8 8 7 7 7 7 8 8 8 9 9 10 11 12 12 12 12 11 11

GEFSSE_500_meanwind_240.txt.gz
Wind_Speed
12 12 11 11 10 9 9 9 9 9 9 8 8 8 7 8 8 8 7 7 7 7 7 7 7 6 6 6 6 6 6 6 6 6 5 5 5 5 5 5 4 4 3
11 10 10 10 9 9 9 9 9 8 8 7 7 7 7 7 7 7 7 7 6 6 5 5 6 6 5 6 5 5 6 5 6 6 6 5 5 5 4 4 4 4 4
10 10 9 9 8 8 8 8 8 8 7 7 7 7 7 7 7 7 6 6 6 6 5 6 5 6 6 6 5 5 5 5 5 5 5 5 5 5 4 4 4 4 4
9 9 8 8 8 8 7 7 7 7 7 7 7 7 6 7 6 6 6 6 5 5 5 5 5 5 5 5 5 5 4 4 4 4 4 4 4 4 5 4 4 4 4
8 8 7 7 7 7 7 6 6 6 6 6 6 6 6 6 5 5 5 5 6 5 5 5 5 5 5 5 5 4 4 4 4 4 4 3 4 4 5 5 5 5 4
8 7 7 6 7 7 7 6 6 6 6 6 6 6 6 6 5 6 6 6 5 5 5 5 5 5 5 4 4 4 4 4 4 4 3 3 3 3 4 5 5 5 4
7 7 6 6 6 6 6 6 6 6 6 6 6 6 6 6 6 6 6 6 6 6 5 5 4 4 4 4 4 3 3 4 4 4 3 3 3 3 3 4 4 4 5
6 6 6 6 6 5 5 5 5 5 5 6 6 6 6 6 6 6 6 7 6 6 6 6 5 5 4 4 4 4 3 4 3 3 3 3 3 3 3 3 3 3 4
6 6 6 5 5 5 5 5 5 5 5 5 5 5 5 5 5 5 6 6 6 6 5 5 5 4 4 4 4 4 4 4 3 2 2 2 2 2 2 2 2 2 2
5 6 5 5 5 5 5 5 5 4 4 5 5 5 6 5 4 4 5 5 4 4 5 4 4 4 4 3 3 4 4 4 4 3 2 2 1 1 2 2 2 2 2
4 5 5 6 5 5 5 5 5 5 5 5 5 6 6 6 5 4 4 4 4 3 3 3 4 4 3 3 3 4 4 4 4 3 2 1 1 1 1 1 1 2 1
4 4 5 5 5 5 5 5 5 5 5 5 5 5 5 6 4 4 4 4 3 3 3 3 3 3 2 2 2 3 3 3 3 2 2 1 1 0 0 1 1 1 2
4 4 5 5 4 4 4 5 5 5 6 5 5 5 5 5 4 4 4 4 4 3 2 3 3 2 1 1 2 2 2 2 2 2 1 1 1 1 1 1 2 1 1
4 4 5 5 5 5 5 6 6 6 6 5 5 5 5 4 4 3 4 4 4 3 3 3 3 2 2 2 2 2 2 1 1 2 2 2 1 1 1 1 2 1 1
5 5 5 5 5 6 7 7 7 7 7 6 5 5 4 4 3 3 4 4 4 4 3 3 3 2 3 2 2 2 2 1 1 2 2 2 2 2 1 2 2 2 2
5 6 6 6 7 7 7 7 6 7 7 6 6 5 4 4 4 3 4 5 5 4 3 4 3 3 3 2 2 2 2 2 2 2 2 2 3 2 2 2 2 2 2
6 6 7 7 7 7 7 7 7 7 8 7 6 6 5 4 4 4 4 4 4 4 4 4 4 4 4 3 3 3 2 3 3 2 2 2 3 3 2 2 3 3 3
7 7 8 8 8 8 7 7 7 8 8 8 7 7 6 5 4 5 5 5 4 4 4 4 4 4 4 4 4 3 2 2 3 3 3 3 3 3 3 3 3 3 3
7 7 8 9 9 8 8 8 8 9 9 9 8 8 8 7 6 5 6 6 5 5 5 5 5 5 5 5 4 3 3 3 3 4 4 4 4 4 4 4 4 4 4
7 7 8 10 9 8 8 8 8 8 9 10 10 9 8 8 8 7 7 7 6 6 6 6 6 5 4 4 3 3 4 4 4 4 5 5 5 5 4 4 4 5 5
8 7 9 10 10 9 9 8 8 8 9 9 9 9 8 8 8 7 8 8 7 7 6 6 6 5 5 4 4 4 4 4 5 5 5 5 5 5 6 5 5 5 6
8 8 9 9 10 10 9 9 9 9 8 8 9 9 9 8 8 8 8 8 8 7 7 7 6 6 6 5 5 4 4 5 6 6 6 6 5 5 6 6 6 6 6
8 8 9 9 9 9 9 9 9 9 9 9 9 9 10 9 9 8 8 8 8 8 7 7 6 6 6 6 6 6 5 6 6 6 6 6 6 7 7 7 7 7 7
8 8 8 9 9 9 10 10 9 9 9 9 10 10 10 10 10 9 8 8 9 8 7 7 7 7 7 7 6 6 6 6 5 5 6 6 7 7 8 9 9 9 9
8 8 9 9 9 9 9 10 10 10 10 10 11 10 10 11 12 11 9 8 8 8 8 8 7 8 7 7 7 6 7 7 6 6 7 7 7 8 9 10 10 10 10
9 9 10 9 9 9 10 11 10 10 11 11 11 11 11 11 12 12 10 9 8 8 9 8 7 8 7 7 7 7 7 7 7 7 7 8 8 8 9 10 10 10 11